Weather History for KBVY - March, 2014

Change the Weather History Date:

Saturday, March 29, 2014

  Actual Average Record
Temperature  
Mean Temperature 44 °F -  
Max Temperature 51 °F 45 °F 79 °F (1981)
Min Temperature 39 °F 30 °F 23 °F (2001)
Degree Days  
Heating Degree Days 20    
Moisture  
Dew Point 39 °F    
Average Humidity 82    
Maximum Humidity 93    
Minimum Humidity 56    
Precipitation  
Precipitation 0.65 in - - ()
Sea Level Pressure  
Sea Level Pressure 30.13 in    
Wind  
Wind Speed 8 mph (NNE)    
Max Wind Speed 15 mph    
Max Gust Speed 20 mph    
Visibility 7 miles    
Events Rain    
Averages and records for this station are not official NWS values.
T = Trace of Precipitation, MM = Missing Value Source: NWS Daily Summary

Daily Weather History Graph

Daily Weather History Graph

Search for Another Location

Airport or City:

Trip Planner

Search our weather history database for the weather conditions in past years. The results will help you decide how hot, cold, wet, or windy it might be!

Date:

Astronomy

Mar. 29, 2014 Rise Set
Actual Time 6:31 AM EDT 7:06 PM EDT
Civil Twilight 6:02 AM EDT 7:34 PM EDT
Nautical Twilight 5:29 AM EDT 8:08 PM EDT
Astronomical Twilight 4:54 AM EDT 8:42 PM EDT
Moon 5:39 AM EDT (3/29) 6:06 PM EDT (3/29)
Length of Visible Light 13h 31m
Length of Day
12h 34m
Waning Crescent, 2% of the Moon is Illuminated
Mar 29
Waning Crescent
Mar 30
New
Apr 7
First Quarter
Apr 15
Full
Apr 22
Last Quarter

Hourly Weather History & Observations

Time (EDT) Temp. Windchill Dew Point Humidity Pressure Visibility Wind Dir Wind Speed Gust Speed Precip Events Conditions
12:53 AM 50.0 °F - 46.0 °F 86% 30.01 in 8.0 mi SW 4.6 mph - N/A   Scattered Clouds
1:53 AM 48.0 °F - 45.0 °F 89% 30.04 in 6.0 mi West 4.6 mph - N/A   Scattered Clouds
2:07 AM 50.0 °F - 46.0 °F 86% 30.06 in 6.0 mi West 8.1 mph - N/A   Mostly Cloudy
2:30 AM 48.9 °F - 46.0 °F 90% 30.05 in 7.0 mi WSW 9.2 mph - N/A   Scattered Clouds
2:53 AM 48.9 °F - 45.0 °F 86% 30.05 in 9.0 mi West 8.1 mph - N/A   Clear
3:53 AM 48.0 °F - 41.0 °F 77% 30.06 in 10.0 mi WNW 10.4 mph - N/A   Clear
4:53 AM 46.0 °F 42.5 °F 39.0 °F 76% 30.08 in 10.0 mi West 6.9 mph - N/A   Clear
5:53 AM 43.0 °F 38.8 °F 37.0 °F 80% 30.12 in 10.0 mi WNW 6.9 mph - N/A   Clear
6:53 AM 39.0 °F 33.4 °F 35.1 °F 86% 30.15 in 10.0 mi NNW 8.1 mph - N/A   Mostly Cloudy
7:53 AM 45.0 °F 41.2 °F 39.9 °F 82% 30.17 in 10.0 mi NNW 6.9 mph - N/A   Mostly Cloudy
8:53 AM 48.9 °F - 39.0 °F 69% 30.21 in 10.0 mi North 9.2 mph - N/A   Mostly Cloudy
9:53 AM 50.0 °F - 37.9 °F 63% 30.23 in 10.0 mi NNE 15.0 mph - N/A   Overcast
10:53 AM 50.0 °F - 37.9 °F 63% 30.24 in 10.0 mi NE 9.2 mph - N/A   Overcast
11:53 AM 48.9 °F - 34.0 °F 56% 30.24 in 10.0 mi NE 12.7 mph - N/A   Overcast
12:53 PM 48.0 °F - 35.1 °F 61% 30.23 in 10.0 mi ENE 11.5 mph - N/A   Overcast
1:53 PM 46.9 °F - 35.1 °F 63% 30.21 in 10.0 mi NE 10.4 mph 17.3 mph N/A   Overcast
2:53 PM 45.0 °F 39.3 °F 35.1 °F 68% 30.22 in 10.0 mi East 11.5 mph - 0.00 in Rain Light Rain
3:53 PM 43.0 °F 41.3 °F 37.0 °F 80% 30.20 in 7.0 mi NE 3.5 mph - 0.03 in Rain Light Rain
4:53 PM 41.0 °F 35.8 °F 37.0 °F 86% 30.17 in 4.0 mi NE 8.1 mph - 0.06 in Rain Light Rain
5:45 PM 41.0 °F 36.4 °F 37.9 °F 89% 30.16 in 5.0 mi ENE 6.9 mph - 0.04 in Rain Light Rain
5:53 PM 39.9 °F 35.1 °F 37.9 °F 93% 30.14 in 5.0 mi ENE 6.9 mph - 0.05 in Rain Light Rain
6:16 PM 39.9 °F 35.1 °F 37.9 °F 93% 30.15 in 5.0 mi ENE 6.9 mph - 0.03 in Rain Rain
6:26 PM 39.9 °F 35.8 °F 37.9 °F 93% 30.15 in 5.0 mi NE 5.8 mph - 0.04 in Rain Light Rain
6:53 PM 39.9 °F 35.1 °F 37.0 °F 89% 30.14 in 5.0 mi NE 6.9 mph - 0.07 in Rain Light Rain
7:53 PM 39.9 °F 33.9 °F 37.9 °F 93% 30.12 in 6.0 mi ENE 9.2 mph - 0.07 in Rain Light Rain
8:53 PM 39.9 °F 32.9 °F 37.9 °F 93% 30.10 in 6.0 mi ENE 11.5 mph - 0.05 in Rain Light Rain
9:39 PM 39.9 °F 34.5 °F 37.9 °F 93% 30.09 in 5.0 mi ENE 8.1 mph - 0.03 in Rain Light Rain
9:53 PM 39.9 °F 34.5 °F 37.9 °F 93% 30.07 in 5.0 mi ENE 8.1 mph - 0.06 in Rain Rain
10:53 PM 39.9 °F 34.5 °F 37.9 °F 93% 30.06 in 4.0 mi ENE 8.1 mph - 0.12 in Rain Rain
11:53 PM 39.9 °F 32.5 °F 37.0 °F 89% 30.00 in 3.0 mi ENE 12.7 mph 19.6 mph 0.14 in Rain Rain